date,time,SUV Intensity [MED/Hr],UV Index,Daily total [MED],Since Last [MED]
25/11/2022,00:03:03,-0.000,0.0,0.0,0.0
25/11/2022,00:04:03,0.001,0.0,0.0,0.0
25/11/2022,00:05:03,-0.000,0.0,0.0,0.0
25/11/2022,00:06:03,0.000,0.0,0.0,0.0
25/11/2022,00:07:03,0.001,0.0,0.0,0.0
25/11/2022,00:08:03,0.000,0.0,0.0,0.0
25/11/2022,00:09:03,-0.001,0.0,0.0,0.0
25/11/2022,00:10:04,0.000,0.0,0.0,0.0
25/11/2022,00:11:05,0.001,0.0,0.0,0.0
25/11/2022,00:12:03,0.000,0.0,0.0,0.0
25/11/2022,00:13:03,-0.000,0.0,0.0,0.0
25/11/2022,00:14:03,-0.000,0.0,0.0,0.0
25/11/2022,00:15:03,0.000,0.0,0.0,0.0
25/11/2022,00:16:04,0.000,0.0,0.0,0.0
25/11/2022,00:17:03,0.000,0.0,0.0,0.0
25/11/2022,00:18:03,-0.000,0.0,0.0,0.0
25/11/2022,00:19:03,0.000,0.0,0.0,0.0
25/11/2022,00:20:03,-0.000,0.0,0.0,0.0
25/11/2022,00:21:03,0.000,0.0,0.0,0.0
25/11/2022,00:22:03,-0.001,0.0,0.0,0.0
25/11/2022,00:23:03,0.001,0.0,0.0,0.0
25/11/2022,00:24:03,-0.000,0.0,0.0,0.0
25/11/2022,00:25:03,0.000,0.0,0.0,0.0
25/11/2022,00:26:03,0.000,0.0,0.0,0.0
25/11/2022,00:27:03,0.000,0.0,0.0,0.0
25/11/2022,00:28:03,-0.001,0.0,0.0,0.0
25/11/2022,00:29:04,0.000,0.0,0.0,0.0
25/11/2022,00:30:03,0.000,0.0,0.0,0.0
25/11/2022,00:31:04,-0.000,0.0,0.0,0.0
25/11/2022,00:32:04,0.000,0.0,0.0,0.0
25/11/2022,00:33:04,-0.001,0.0,0.0,0.0
25/11/2022,00:34:03,-0.000,0.0,0.0,0.0
25/11/2022,00:35:03,0.000,0.0,0.0,0.0
25/11/2022,00:36:06,-0.000,0.0,0.0,0.0
25/11/2022,00:37:04,0.001,0.0,0.0,0.0
25/11/2022,00:38:03,0.001,0.0,0.0,0.0
25/11/2022,00:39:04,-0.000,0.0,0.0,0.0
25/11/2022,00:40:03,0.000,0.0,0.0,0.0
25/11/2022,00:41:05,-0.000,0.0,0.0,0.0
25/11/2022,00:42:04,0.000,0.0,0.0,0.0
25/11/2022,00:43:04,-0.000,0.0,0.0,0.0
25/11/2022,00:44:03,0.001,0.0,0.0,0.0
25/11/2022,00:45:03,0.000,0.0,0.0,0.0
25/11/2022,00:46:03,-0.001,0.0,0.0,0.0
25/11/2022,00:47:03,0.000,0.0,0.0,0.0
25/11/2022,00:48:03,0.000,0.0,0.0,0.0
25/11/2022,00:49:04,-0.000,0.0,0.0,0.0
25/11/2022,00:50:03,0.000,0.0,0.0,0.0
25/11/2022,00:51:03,-0.000,0.0,0.0,0.0
25/11/2022,00:52:04,-0.000,0.0,0.0,0.0
25/11/2022,00:53:03,-0.000,0.0,0.0,0.0
25/11/2022,00:54:04,-0.000,0.0,0.0,0.0
25/11/2022,00:55:03,0.000,0.0,0.0,0.0
25/11/2022,00:56:03,0.000,0.0,0.0,0.0
25/11/2022,00:57:03,-0.001,0.0,0.0,0.0
25/11/2022,00:58:03,-0.001,0.0,0.0,0.0
25/11/2022,00:59:04,0.000,0.0,0.0,0.0
25/11/2022,01:00:03,0.000,0.0,0.0,0.0
25/11/2022,01:01:04,0.001,0.0,0.0,0.0
25/11/2022,01:02:03,0.001,0.0,0.0,0.0
25/11/2022,01:03:03,-0.000,0.0,0.0,0.0
25/11/2022,01:04:03,0.000,0.0,0.0,0.0
25/11/2022,01:05:03,-0.001,0.0,0.0,0.0
25/11/2022,01:06:03,0.001,0.0,0.0,0.0
25/11/2022,01:07:04,0.000,0.0,0.0,0.0
25/11/2022,01:08:03,0.000,0.0,0.0,0.0
25/11/2022,01:09:03,0.000,0.0,0.0,0.0
25/11/2022,01:10:03,0.000,0.0,0.0,0.0
25/11/2022,01:11:03,-0.000,0.0,0.0,0.0
25/11/2022,01:12:04,0.000,0.0,0.0,0.0
25/11/2022,01:13:04,-0.001,0.0,0.0,0.0
25/11/2022,01:14:04,0.000,0.0,0.0,0.0
25/11/2022,01:15:04,0.000,0.0,0.0,0.0
25/11/2022,01:16:04,0.001,0.0,0.0,0.0
25/11/2022,01:17:03,-0.000,0.0,0.0,0.0
25/11/2022,01:18:04,0.000,0.0,0.0,0.0
25/11/2022,01:19:03,-0.001,0.0,0.0,0.0
25/11/2022,01:20:04,0.000,0.0,0.0,0.0
25/11/2022,01:21:03,0.000,0.0,0.0,0.0
25/11/2022,01:22:04,0.001,0.0,0.0,0.0
25/11/2022,01:23:03,0.001,0.0,0.0,0.0
25/11/2022,01:24:04,-0.001,0.0,0.0,0.0
25/11/2022,01:25:04,0.001,0.0,0.0,0.0
25/11/2022,01:26:04,0.000,0.0,0.0,0.0
25/11/2022,01:27:04,-0.000,0.0,0.0,0.0
25/11/2022,01:28:04,0.001,0.0,0.0,0.0
25/11/2022,01:29:03,0.001,0.0,0.0,0.0
25/11/2022,01:30:03,0.000,0.0,0.0,0.0
25/11/2022,01:31:04,0.000,0.0,0.0,0.0
25/11/2022,01:32:03,0.000,0.0,0.0,0.0
25/11/2022,01:33:04,-0.000,0.0,0.0,0.0
25/11/2022,01:34:03,0.000,0.0,0.0,0.0
25/11/2022,01:35:03,0.000,0.0,0.0,0.0
25/11/2022,01:36:04,0.000,0.0,0.0,0.0
25/11/2022,01:37:04,0.001,0.0,0.0,0.0
25/11/2022,01:38:03,0.000,0.0,0.0,0.0
25/11/2022,01:39:04,0.000,0.0,0.0,0.0
25/11/2022,01:40:04,0.001,0.0,0.0,0.0
25/11/2022,01:41:03,0.000,0.0,0.0,0.0
25/11/2022,01:42:04,0.000,0.0,0.0,0.0
25/11/2022,01:43:03,0.000,0.0,0.0,0.0
25/11/2022,01:44:04,-0.000,0.0,0.0,0.0
25/11/2022,01:45:03,0.000,0.0,0.0,0.0
25/11/2022,01:46:04,0.001,0.0,0.0,0.0
25/11/2022,01:47:03,0.001,0.0,0.0,0.0
25/11/2022,01:48:03,0.001,0.0,0.0,0.0
25/11/2022,01:49:04,0.001,0.0,0.0,0.0
25/11/2022,01:50:03,0.000,0.0,0.0,0.0
25/11/2022,01:51:03,0.001,0.0,0.0,0.0
25/11/2022,01:52:04,0.001,0.0,0.0,0.0
25/11/2022,01:53:03,0.000,0.0,0.0,0.0
25/11/2022,01:54:04,0.001,0.0,0.0,0.0
25/11/2022,01:55:04,0.001,0.0,0.0,0.0
25/11/2022,01:56:04,0.000,0.0,0.0,0.0
25/11/2022,01:57:03,0.001,0.0,0.0,0.0
25/11/2022,01:58:03,0.001,0.0,0.0,0.0
25/11/2022,01:59:04,-0.000,0.0,0.0,0.0
25/11/2022,02:00:03,0.000,0.0,0.0,0.0
25/11/2022,02:01:04,0.001,0.0,0.0,0.0
25/11/2022,02:02:04,0.001,0.0,0.0,0.0
25/11/2022,02:03:03,0.000,0.0,0.0,0.0
25/11/2022,02:04:03,-0.000,0.0,0.0,0.0
25/11/2022,02:05:04,-0.000,0.0,0.0,0.0
25/11/2022,02:06:04,-0.000,0.0,0.0,0.0
25/11/2022,02:07:04,-0.000,0.0,0.0,0.0
25/11/2022,02:08:03,0.000,0.0,0.0,0.0
25/11/2022,02:09:03,0.001,0.0,0.0,0.0
25/11/2022,02:10:03,0.001,0.0,0.0,0.0
25/11/2022,02:11:03,0.001,0.0,0.0,0.0
25/11/2022,02:12:04,0.001,0.0,0.0,0.0
25/11/2022,02:13:03,0.000,0.0,0.0,0.0
25/11/2022,02:14:04,0.001,0.0,0.0,0.0
25/11/2022,02:15:04,0.001,0.0,0.0,0.0
25/11/2022,02:16:04,-0.000,0.0,0.0,0.0
25/11/2022,02:17:04,0.000,0.0,0.0,0.0
25/11/2022,02:18:04,0.001,0.0,0.0,0.0
25/11/2022,02:19:04,0.000,0.0,0.0,0.0
25/11/2022,02:20:04,0.001,0.0,0.0,0.0
25/11/2022,02:21:04,-0.000,0.0,0.0,0.0
25/11/2022,02:22:03,0.001,0.0,0.0,0.0
25/11/2022,02:23:03,0.001,0.0,0.0,0.0
25/11/2022,02:24:33,0.001,0.0,0.0,0.0
25/11/2022,02:26:04,0.000,0.0,0.0,0.0
25/11/2022,02:27:04,0.000,0.0,0.0,0.0
25/11/2022,02:28:04,0.000,0.0,0.0,0.0
25/11/2022,02:29:03,0.000,0.0,0.0,0.0
25/11/2022,02:30:04,0.000,0.0,0.0,0.0
25/11/2022,02:31:03,0.000,0.0,0.0,0.0
25/11/2022,02:32:03,0.000,0.0,0.0,0.0
25/11/2022,02:33:04,0.000,0.0,0.0,0.0
25/11/2022,02:34:03,0.000,0.0,0.0,0.0
25/11/2022,02:35:04,0.000,0.0,0.0,0.0
25/11/2022,02:36:03,0.000,0.0,0.0,0.0
25/11/2022,02:37:03,0.001,0.0,0.0,0.0
25/11/2022,02:38:03,0.000,0.0,0.0,0.0
25/11/2022,02:39:03,-0.000,0.0,0.0,0.0
25/11/2022,02:40:05,0.001,0.0,0.0,0.0
25/11/2022,02:41:04,0.000,0.0,0.0,0.0
25/11/2022,02:42:04,0.000,0.0,0.0,0.0
25/11/2022,02:43:04,-0.001,0.0,0.0,0.0
25/11/2022,02:44:04,0.000,0.0,0.0,0.0
25/11/2022,02:45:03,0.000,0.0,0.0,0.0
25/11/2022,02:46:04,0.000,0.0,0.0,0.0
25/11/2022,02:47:03,-0.000,0.0,0.0,0.0
25/11/2022,02:48:04,0.001,0.0,0.0,0.0
25/11/2022,02:49:05,0.000,0.0,0.0,0.0
25/11/2022,02:50:05,0.001,0.0,0.0,0.0
25/11/2022,02:51:03,0.000,0.0,0.0,0.0
25/11/2022,02:52:04,0.000,0.0,0.0,0.0
25/11/2022,02:53:03,0.000,0.0,0.0,0.0
25/11/2022,02:54:04,0.000,0.0,0.0,0.0
25/11/2022,02:55:04,0.000,0.0,0.0,0.0
25/11/2022,02:56:04,0.001,0.0,0.0,0.0
25/11/2022,02:57:04,0.000,0.0,0.0,0.0
25/11/2022,02:58:04,0.000,0.0,0.0,0.0
25/11/2022,02:59:04,0.000,0.0,0.0,0.0
25/11/2022,03:00:04,0.000,0.0,0.0,0.0
25/11/2022,03:01:04,0.000,0.0,0.0,0.0
25/11/2022,03:02:04,-0.001,0.0,0.0,0.0
25/11/2022,03:03:04,0.000,0.0,0.0,0.0
25/11/2022,03:04:03,0.000,0.0,0.0,0.0
25/11/2022,03:05:04,0.000,0.0,0.0,0.0
25/11/2022,03:06:04,0.000,0.0,0.0,0.0
25/11/2022,03:07:04,0.000,0.0,0.0,0.0
25/11/2022,03:08:04,0.000,0.0,0.0,0.0
25/11/2022,03:09:04,0.001,0.0,0.0,0.0
25/11/2022,03:10:04,0.000,0.0,0.0,0.0
25/11/2022,03:11:03,-0.001,0.0,0.0,0.0
25/11/2022,03:12:04,0.001,0.0,0.0,0.0
25/11/2022,03:13:04,0.000,0.0,0.0,0.0
25/11/2022,03:14:04,0.000,0.0,0.0,0.0
25/11/2022,03:15:04,0.000,0.0,0.0,0.0
25/11/2022,03:16:04,-0.001,0.0,0.0,0.0
25/11/2022,03:17:03,-0.001,0.0,0.0,0.0
25/11/2022,03:18:03,-0.000,0.0,0.0,0.0
25/11/2022,03:19:04,0.000,0.0,0.0,0.0
25/11/2022,03:20:04,0.000,0.0,0.0,0.0
25/11/2022,03:21:04,0.000,0.0,0.0,0.0
25/11/2022,03:22:03,0.000,0.0,0.0,0.0
25/11/2022,03:23:04,-0.000,0.0,0.0,0.0
25/11/2022,03:24:03,0.001,0.0,0.0,0.0
25/11/2022,03:25:04,0.000,0.0,0.0,0.0
25/11/2022,03:26:03,0.000,0.0,0.0,0.0
25/11/2022,03:27:03,0.000,0.0,0.0,0.0
25/11/2022,03:28:04,0.000,0.0,0.0,0.0
25/11/2022,03:29:04,0.000,0.0,0.0,0.0
25/11/2022,03:30:03,-0.001,0.0,0.0,0.0
25/11/2022,03:31:04,0.001,0.0,0.0,0.0
25/11/2022,03:32:03,0.000,0.0,0.0,0.0
25/11/2022,03:33:04,0.000,0.0,0.0,0.0
25/11/2022,03:34:03,-0.000,0.0,0.0,0.0
25/11/2022,03:35:04,0.000,0.0,0.0,0.0
25/11/2022,03:36:04,0.001,0.0,0.0,0.0
25/11/2022,03:37:03,0.000,0.0,0.0,0.0
25/11/2022,03:38:25,0.000,0.0,0.0,0.0
25/11/2022,03:39:04,0.000,0.0,0.0,0.0
25/11/2022,03:40:04,-0.000,0.0,0.0,0.0
25/11/2022,03:41:03,0.000,0.0,0.0,0.0
25/11/2022,03:42:04,-0.000,0.0,0.0,0.0
25/11/2022,03:43:04,0.000,0.0,0.0,0.0
25/11/2022,03:44:05,0.001,0.0,0.0,0.0
25/11/2022,03:45:04,-0.000,0.0,0.0,0.0
25/11/2022,03:46:03,0.000,0.0,0.0,0.0
25/11/2022,03:47:04,0.000,0.0,0.0,0.0
25/11/2022,03:48:04,0.001,0.0,0.0,0.0
25/11/2022,03:49:04,0.000,0.0,0.0,0.0
25/11/2022,03:50:03,0.001,0.0,0.0,0.0
25/11/2022,03:51:04,0.001,0.0,0.0,0.0
25/11/2022,03:52:03,0.000,0.0,0.0,0.0
25/11/2022,03:53:03,0.000,0.0,0.0,0.0
25/11/2022,03:54:03,0.000,0.0,0.0,0.0
25/11/2022,03:55:03,0.001,0.0,0.0,0.0
25/11/2022,03:56:04,0.000,0.0,0.0,0.0
25/11/2022,03:57:04,-0.001,0.0,0.0,0.0
25/11/2022,03:58:04,0.000,0.0,0.0,0.0
25/11/2022,03:59:04,0.000,0.0,0.0,0.0
25/11/2022,04:00:04,0.000,0.0,0.0,0.0
25/11/2022,04:01:04,-0.001,0.0,0.0,0.0
25/11/2022,04:02:04,-0.001,0.0,0.0,0.0
25/11/2022,04:03:33,-0.001,0.0,0.0,0.0
25/11/2022,04:05:04,0.000,0.0,0.0,0.0
25/11/2022,04:06:04,0.000,0.0,0.0,0.0
25/11/2022,04:07:04,0.000,0.0,0.0,0.0
25/11/2022,04:08:04,0.000,0.0,0.0,0.0
25/11/2022,04:09:03,0.000,0.0,0.0,0.0
25/11/2022,04:10:03,0.001,0.0,0.0,0.0
25/11/2022,04:11:04,-0.001,0.0,0.0,0.0
25/11/2022,04:12:03,0.000,0.0,0.0,0.0
25/11/2022,04:13:03,0.001,0.0,0.0,0.0
25/11/2022,04:14:04,0.000,0.0,0.0,0.0
25/11/2022,04:15:04,0.000,0.0,0.0,0.0
25/11/2022,04:16:04,0.001,0.0,0.0,0.0
25/11/2022,04:17:04,0.001,0.0,0.0,0.0
25/11/2022,04:18:04,0.000,0.0,0.0,0.0
25/11/2022,04:19:04,0.001,0.0,0.0,0.0
25/11/2022,04:20:03,-0.000,0.0,0.0,0.0
25/11/2022,04:21:04,-0.000,0.0,0.0,0.0
25/11/2022,04:22:04,0.000,0.0,0.0,0.0
25/11/2022,04:23:04,0.000,0.0,0.0,0.0
25/11/2022,04:24:04,0.000,0.0,0.0,0.0
25/11/2022,04:25:04,0.000,0.0,0.0,0.0
25/11/2022,04:26:04,-0.000,0.0,0.0,0.0
25/11/2022,04:27:04,0.001,0.0,0.0,0.0
25/11/2022,04:28:04,0.000,0.0,0.0,0.0
25/11/2022,04:29:04,0.000,0.0,0.0,0.0
25/11/2022,04:30:04,-0.000,0.0,0.0,0.0
25/11/2022,04:31:04,0.000,0.0,0.0,0.0
25/11/2022,04:32:04,0.000,0.0,0.0,0.0
25/11/2022,04:33:04,0.000,0.0,0.0,0.0
25/11/2022,04:34:03,0.001,0.0,0.0,0.0
25/11/2022,04:35:04,0.001,0.0,0.0,0.0
25/11/2022,04:36:04,-0.000,0.0,0.0,0.0
25/11/2022,04:37:04,-0.001,0.0,0.0,0.0
25/11/2022,04:38:03,0.000,0.0,0.0,0.0
25/11/2022,04:39:04,0.000,0.0,0.0,0.0
25/11/2022,04:40:04,0.000,0.0,0.0,0.0
25/11/2022,04:41:04,0.000,0.0,0.0,0.0
25/11/2022,04:42:04,0.000,0.0,0.0,0.0
25/11/2022,04:43:04,0.000,0.0,0.0,0.0
25/11/2022,04:44:04,0.001,0.0,0.0,0.0
25/11/2022,04:45:04,0.000,0.0,0.0,0.0
25/11/2022,04:46:03,0.000,0.0,0.0,0.0
25/11/2022,04:47:03,0.000,0.0,0.0,0.0
25/11/2022,04:48:04,0.000,0.0,0.0,0.0
25/11/2022,04:49:03,0.000,0.0,0.0,0.0
25/11/2022,04:50:04,0.000,0.0,0.0,0.0
25/11/2022,04:51:03,0.000,0.0,0.0,0.0
25/11/2022,04:52:03,0.000,0.0,0.0,0.0
25/11/2022,04:53:04,0.000,0.0,0.0,0.0
25/11/2022,04:54:04,0.000,0.0,0.0,0.0
25/11/2022,04:55:04,0.000,0.0,0.0,0.0
25/11/2022,04:56:04,0.001,0.0,0.0,0.0
25/11/2022,04:57:04,0.000,0.0,0.0,0.0
25/11/2022,04:58:04,0.000,0.0,0.0,0.0
25/11/2022,04:59:04,0.000,0.0,0.0,0.0
25/11/2022,05:00:04,0.000,0.0,0.0,0.0
25/11/2022,05:01:04,0.000,0.0,0.0,0.0
25/11/2022,05:02:04,0.000,0.0,0.0,0.0
25/11/2022,05:03:04,0.000,0.0,0.0,0.0
25/11/2022,05:04:04,0.000,0.0,0.0,0.0
25/11/2022,05:05:03,0.000,0.0,0.0,0.0
25/11/2022,05:06:05,0.000,0.0,0.0,0.0
25/11/2022,05:07:04,0.000,0.0,0.0,0.0
25/11/2022,05:08:03,0.000,0.0,0.0,0.0
25/11/2022,05:09:04,0.000,0.0,0.0,0.0
25/11/2022,05:10:04,0.001,0.0,0.0,0.0
25/11/2022,05:11:04,0.000,0.0,0.0,0.0
25/11/2022,05:12:04,0.000,0.0,0.0,0.0
25/11/2022,05:13:04,0.001,0.0,0.0,0.0
25/11/2022,05:14:04,0.001,0.0,0.0,0.0
25/11/2022,05:15:03,0.001,0.0,0.0,0.0
25/11/2022,05:16:03,0.001,0.0,0.0,0.0
25/11/2022,05:17:04,0.001,0.0,0.0,0.0
25/11/2022,05:18:05,0.000,0.0,0.0,0.0
25/11/2022,05:19:04,0.000,0.0,0.0,0.0
25/11/2022,05:20:04,0.001,0.0,0.0,0.0
25/11/2022,05:21:04,0.001,0.0,0.0,0.0
25/11/2022,05:22:04,-0.000,0.0,0.0,0.0
25/11/2022,05:23:04,0.000,0.0,0.0,0.0
25/11/2022,05:24:04,0.000,0.0,0.0,0.0
25/11/2022,05:25:03,0.000,0.0,0.0,0.0
25/11/2022,05:26:03,0.000,0.0,0.0,0.0
25/11/2022,05:27:03,0.000,0.0,0.0,0.0
25/11/2022,05:28:04,0.000,0.0,0.0,0.0
25/11/2022,05:29:04,0.001,0.0,0.0,0.0
25/11/2022,05:30:04,-0.000,0.0,0.0,0.0
25/11/2022,05:31:04,-0.001,0.0,0.0,0.0
25/11/2022,05:32:04,0.000,0.0,0.0,0.0
25/11/2022,05:33:04,-0.001,0.0,0.0,0.0
25/11/2022,05:34:04,0.000,0.0,0.0,0.0
25/11/2022,05:35:04,-0.000,0.0,0.0,0.0
25/11/2022,05:36:04,0.000,0.0,0.0,0.0
25/11/2022,05:37:03,-0.000,0.0,0.0,0.0
25/11/2022,05:38:04,0.001,0.0,0.0,0.0
25/11/2022,05:39:04,-0.000,0.0,0.0,0.0
25/11/2022,05:40:04,0.001,0.0,0.0,0.0
25/11/2022,05:41:04,-0.001,0.0,0.0,0.0
25/11/2022,05:42:04,0.000,0.0,0.0,0.0
25/11/2022,05:43:04,0.000,0.0,0.0,0.0
25/11/2022,05:44:03,0.000,0.0,0.0,0.0
25/11/2022,05:45:04,0.000,0.0,0.0,0.0
25/11/2022,05:46:04,0.001,0.0,0.0,0.0
25/11/2022,05:47:04,0.000,0.0,0.0,0.0
25/11/2022,05:48:04,0.001,0.0,0.0,0.0
25/11/2022,05:49:04,0.000,0.0,0.0,0.0
25/11/2022,05:50:03,0.001,0.0,0.0,0.0
25/11/2022,05:51:04,0.000,0.0,0.0,0.0
25/11/2022,05:52:04,0.000,0.0,0.0,0.0
25/11/2022,05:53:03,0.000,0.0,0.0,0.0
25/11/2022,05:54:04,0.000,0.0,0.0,0.0
25/11/2022,05:55:04,-0.000,0.0,0.0,0.0
25/11/2022,05:56:04,0.001,0.0,0.0,0.0
25/11/2022,05:57:04,0.001,0.0,0.0,0.0
25/11/2022,05:58:04,0.001,0.0,0.0,0.0
25/11/2022,05:59:03,0.001,0.0,0.0,0.0
25/11/2022,06:00:04,0.001,0.0,0.0,0.0
25/11/2022,06:01:03,0.001,0.0,0.0,0.0
25/11/2022,06:02:04,0.001,0.0,0.0,0.0
25/11/2022,06:03:04,0.001,0.0,0.0,0.0
25/11/2022,06:04:04,0.001,0.0,0.0,0.0
25/11/2022,06:05:04,0.001,0.0,0.0,0.0
25/11/2022,06:06:04,0.000,0.0,0.0,0.0
25/11/2022,06:07:03,-0.000,0.0,0.0,0.0
25/11/2022,06:08:33,0.000,0.0,0.0,0.0
25/11/2022,06:10:04,-0.000,0.0,0.0,0.0
25/11/2022,06:11:04,0.001,0.0,0.0,0.0
25/11/2022,06:12:03,0.001,0.0,0.0,0.0
25/11/2022,06:13:03,0.001,0.0,0.0,0.0
25/11/2022,06:14:04,0.001,0.0,0.0,0.0
25/11/2022,06:15:04,0.001,0.0,0.0,0.0
25/11/2022,06:16:04,0.000,0.0,0.0,0.0
25/11/2022,06:17:04,0.001,0.0,0.0,0.0
25/11/2022,06:18:04,-0.000,0.0,0.0,0.0
25/11/2022,06:19:03,0.001,0.0,0.0,0.0
25/11/2022,06:20:04,0.001,0.0,0.0,0.0
25/11/2022,06:21:04,0.000,0.0,0.0,0.0
25/11/2022,06:22:04,0.001,0.0,0.0,0.0
25/11/2022,06:23:04,0.001,0.0,0.0,0.0
25/11/2022,06:24:04,0.001,0.0,0.0,0.0
25/11/2022,06:25:04,0.000,0.0,0.0,0.0
25/11/2022,06:26:04,0.001,0.0,0.0,0.0
25/11/2022,06:27:04,0.000,0.0,0.0,0.0
25/11/2022,06:28:04,0.001,0.0,0.0,0.0
25/11/2022,06:29:04,0.001,0.0,0.0,0.0
25/11/2022,06:30:04,0.001,0.0,0.0,0.0
25/11/2022,06:31:04,0.001,0.0,0.0,0.0
25/11/2022,06:32:04,0.001,0.0,0.0,0.0
25/11/2022,06:33:04,0.001,0.0,0.0,0.0
25/11/2022,06:34:04,0.001,0.0,0.0,0.0
25/11/2022,06:35:04,0.000,0.0,0.0,0.0
25/11/2022,06:36:04,0.001,0.0,0.0,0.0
25/11/2022,06:37:04,0.000,0.0,0.0,0.0
25/11/2022,06:38:04,0.001,0.0,0.0,0.0
25/11/2022,06:39:04,0.001,0.0,0.0,0.0
25/11/2022,06:40:04,0.001,0.0,0.0,0.0
25/11/2022,06:41:04,0.001,0.0,0.0,0.0
25/11/2022,06:42:04,0.001,0.0,0.0,0.0
25/11/2022,06:43:04,0.001,0.0,0.0,0.0
25/11/2022,06:44:04,0.000,0.0,0.0,0.0
25/11/2022,06:45:04,0.001,0.0,0.0,0.0
25/11/2022,06:46:04,0.000,0.0,0.0,0.0
25/11/2022,06:47:04,0.001,0.0,0.0,0.0
25/11/2022,06:48:04,0.001,0.0,0.0,0.0
25/11/2022,06:49:04,0.001,0.0,0.0,0.0
25/11/2022,06:50:04,0.001,0.0,0.0,0.0
25/11/2022,06:51:04,0.001,0.0,0.0,0.0
25/11/2022,06:52:04,0.001,0.0,0.0,0.0
25/11/2022,06:53:04,0.001,0.0,0.0,0.0
25/11/2022,06:54:04,0.001,0.0,0.0,0.0
25/11/2022,06:55:04,0.001,0.0,0.0,0.0
25/11/2022,06:56:04,0.001,0.0,0.0,0.0
25/11/2022,06:57:04,0.001,0.0,0.0,0.0
25/11/2022,06:58:04,0.001,0.0,0.0,0.0
25/11/2022,06:59:04,0.001,0.0,0.0,0.0
25/11/2022,07:00:04,0.000,0.0,0.0,0.0
25/11/2022,07:01:04,0.001,0.0,0.0,0.0
25/11/2022,07:02:04,-0.000,0.0,0.0,0.0
25/11/2022,07:03:04,0.001,0.0,0.0,0.0
25/11/2022,07:04:04,0.001,0.0,0.0,0.0
25/11/2022,07:05:04,0.001,0.0,0.0,0.0
25/11/2022,07:06:04,0.001,0.0,0.0,0.0
25/11/2022,07:07:04,0.001,0.0,0.0,0.0
25/11/2022,07:08:04,0.001,0.0,0.0,0.0
25/11/2022,07:09:04,0.002,0.0,0.0,0.0
25/11/2022,07:10:04,0.001,0.0,0.0,0.0
25/11/2022,07:11:04,0.001,0.0,0.0,0.0
25/11/2022,07:12:04,0.001,0.0,0.0,0.0
25/11/2022,07:13:04,0.001,0.0,0.0,0.0
25/11/2022,07:14:04,0.001,0.0,0.0,0.0
25/11/2022,07:15:06,0.001,0.0,0.0,0.0
25/11/2022,07:16:04,0.000,0.0,0.0,0.0
25/11/2022,07:17:04,0.000,0.0,0.0,0.0
25/11/2022,07:18:04,0.001,0.0,0.0,0.0
25/11/2022,07:19:04,0.001,0.0,0.0,0.0
25/11/2022,07:20:04,0.001,0.0,0.0,0.0
25/11/2022,07:21:04,0.001,0.0,0.0,0.0
25/11/2022,07:22:04,0.001,0.0,0.0,0.0
25/11/2022,07:23:04,0.001,0.0,0.0,0.0
25/11/2022,07:24:04,0.001,0.0,0.0,0.0
25/11/2022,07:25:04,0.001,0.0,0.0,0.0
25/11/2022,07:26:04,0.001,0.0,0.0,0.0
25/11/2022,07:27:04,0.001,0.0,0.0,0.0
25/11/2022,07:28:04,0.001,0.0,0.0,0.0
25/11/2022,07:29:04,0.001,0.0,0.0,0.0
25/11/2022,07:30:05,0.001,0.0,0.0,0.0
25/11/2022,07:31:04,0.002,0.0,0.0,0.0
25/11/2022,07:32:04,0.002,0.0,0.0,0.0
25/11/2022,07:33:04,0.002,0.0,0.0,0.0
25/11/2022,07:34:04,0.002,0.0,0.0,0.0
25/11/2022,07:35:04,0.002,0.0,0.0,0.0
25/11/2022,07:36:04,0.002,0.0,0.0,0.0
25/11/2022,07:37:04,0.002,0.0,0.0,0.0
25/11/2022,07:38:04,0.002,0.0,0.0,0.0
25/11/2022,07:39:04,0.003,0.0,0.0,0.0
25/11/2022,07:40:04,0.003,0.0,0.0,0.0
25/11/2022,07:41:04,0.003,0.0,0.0,0.0
25/11/2022,07:42:04,0.002,0.0,0.0,0.0
25/11/2022,07:43:04,0.004,0.0,0.0,0.0
25/11/2022,07:44:04,0.003,0.0,0.0,0.0
25/11/2022,07:45:04,0.003,0.0,0.0,0.0
25/11/2022,07:46:04,0.005,0.0,0.0,0.0
25/11/2022,07:47:04,0.004,0.0,0.0,0.0
25/11/2022,07:48:04,0.005,0.0,0.0,0.0
25/11/2022,07:49:04,0.004,0.0,0.0,0.0
25/11/2022,07:50:04,0.004,0.0,0.0,0.0
25/11/2022,07:51:04,0.005,0.0,0.0,0.0
25/11/2022,07:52:04,0.006,0.0,0.0,0.0
25/11/2022,07:53:04,0.005,0.0,0.0,0.0
25/11/2022,07:54:04,0.005,0.0,0.0,0.0
25/11/2022,07:55:04,0.006,0.0,0.0,0.0
25/11/2022,07:56:04,0.006,0.0,0.0,0.0
25/11/2022,07:57:04,0.006,0.0,0.0,0.0
25/11/2022,07:58:04,0.006,0.0,0.0,0.0
25/11/2022,07:59:08,0.008,0.0,0.0,0.0
25/11/2022,08:00:04,0.007,0.0,0.0,0.0
25/11/2022,08:01:04,0.007,0.0,0.001,0.001
25/11/2022,08:02:04,0.008,0.0,0.001,0.0
25/11/2022,08:03:04,0.008,0.0,0.001,0.0
25/11/2022,08:04:04,0.008,0.0,0.001,0.0
25/11/2022,08:05:04,0.008,0.0,0.001,0.0
25/11/2022,08:06:04,0.009,0.0,0.001,0.0
25/11/2022,08:07:04,0.009,0.0,0.001,0.0
25/11/2022,08:08:04,0.010,0.0,0.002,0.001
25/11/2022,08:09:04,0.010,0.0,0.002,0.0
25/11/2022,08:10:04,0.010,0.0,0.002,0.0
25/11/2022,08:11:04,0.011,0.0,0.002,0.0
25/11/2022,08:12:04,0.012,0.0,0.002,0.0
25/11/2022,08:13:04,0.011,0.0,0.002,0.0
25/11/2022,08:14:04,0.012,0.0,0.003,0.001
25/11/2022,08:15:04,0.012,0.0,0.003,0.0
25/11/2022,08:16:05,0.013,0.0,0.003,0.0
25/11/2022,08:17:04,0.013,0.0,0.003,0.0
25/11/2022,08:18:05,0.014,0.0,0.003,0.0
25/11/2022,08:19:04,0.014,0.0,0.004,0.001
25/11/2022,08:20:04,0.014,0.0,0.004,0.0
25/11/2022,08:21:04,0.015,0.0,0.004,0.0
25/11/2022,08:22:04,0.016,0.0,0.004,0.0
25/11/2022,08:23:04,0.016,0.0,0.005,0.001
25/11/2022,08:24:04,0.016,0.0,0.005,0.0
25/11/2022,08:25:04,0.018,0.0,0.005,0.0
25/11/2022,08:26:04,0.017,0.0,0.006,0.001
25/11/2022,08:27:04,0.018,0.0,0.006,0.0
25/11/2022,08:28:04,0.018,0.0,0.006,0.0
25/11/2022,08:29:04,0.019,0.0,0.006,0.0
25/11/2022,08:30:04,0.018,0.0,0.007,0.001
25/11/2022,08:31:05,0.020,0.0,0.007,0.0
25/11/2022,08:32:05,0.020,0.0,0.007,0.0
25/11/2022,08:33:04,0.021,0.0,0.008,0.001
25/11/2022,08:34:04,0.021,0.0,0.008,0.0
25/11/2022,08:35:04,0.022,0.0,0.008,0.0
25/11/2022,08:36:04,0.023,0.0,0.009,0.001
25/11/2022,08:37:05,0.022,0.0,0.009,0.0
25/11/2022,08:38:04,0.023,0.0,0.01,0.001
25/11/2022,08:39:04,0.023,0.0,0.01,0.0
25/11/2022,08:40:04,0.025,0.0,0.01,0.0
25/11/2022,08:41:04,0.025,0.0,0.011,0.001
25/11/2022,08:42:04,0.026,0.0,0.011,0.0
25/11/2022,08:43:04,0.027,0.0,0.012,0.001
25/11/2022,08:44:04,0.026,0.0,0.012,0.0
25/11/2022,08:45:05,0.028,0.0,0.013,0.001
25/11/2022,08:46:04,0.029,0.0,0.013,0.0
25/11/2022,08:47:04,0.029,0.0,0.014,0.001
25/11/2022,08:48:04,0.030,0.0,0.014,0.0
25/11/2022,08:49:04,0.030,0.0,0.015,0.001
25/11/2022,08:50:04,0.032,0.0,0.015,0.0
25/11/2022,08:51:04,0.033,0.0,0.016,0.001
25/11/2022,08:52:04,0.033,0.0,0.016,0.0
25/11/2022,08:53:05,0.034,0.0,0.017,0.001
25/11/2022,08:54:04,0.034,0.0,0.017,0.0
25/11/2022,08:55:05,0.035,0.0,0.018,0.001
25/11/2022,08:56:04,0.035,0.0,0.018,0.0
25/11/2022,08:57:04,0.036,0.0,0.019,0.001
25/11/2022,08:58:04,0.037,0.0,0.02,0.001
25/11/2022,08:59:04,0.038,0.0,0.02,0.0
25/11/2022,09:00:05,0.039,0.0,0.021,0.001
25/11/2022,09:01:04,0.040,0.0,0.022,0.001
25/11/2022,09:02:05,0.040,0.0,0.022,0.0
25/11/2022,09:03:04,0.041,0.0,0.023,0.001
25/11/2022,09:04:05,0.043,0.0,0.024,0.001
25/11/2022,09:05:04,0.043,0.0,0.024,0.0
25/11/2022,09:06:04,0.043,0.0,0.025,0.001
25/11/2022,09:07:04,0.044,0.0,0.026,0.001
25/11/2022,09:08:04,0.045,0.0,0.027,0.001
25/11/2022,09:09:05,0.045,0.0,0.027,0.0
25/11/2022,09:10:05,0.047,0.0,0.028,0.001
25/11/2022,09:11:04,0.048,0.0,0.029,0.001
25/11/2022,09:12:05,0.050,0.0,0.03,0.001
25/11/2022,09:13:05,0.049,0.0,0.03,0.0
25/11/2022,09:14:04,0.050,0.0,0.031,0.001
25/11/2022,09:15:04,0.051,0.0,0.032,0.001
25/11/2022,09:16:04,0.052,0.0,0.033,0.001
25/11/2022,09:17:04,0.053,0.0,0.034,0.001
25/11/2022,09:18:05,0.055,0.0,0.035,0.001
25/11/2022,09:19:05,0.054,0.0,0.036,0.001
25/11/2022,09:20:04,0.056,0.0,0.037,0.001
25/11/2022,09:21:05,0.057,0.0,0.038,0.001
25/11/2022,09:22:04,0.057,0.0,0.038,0.0
25/11/2022,09:23:05,0.058,0.0,0.039,0.001
25/11/2022,09:24:04,0.059,0.0,0.04,0.001
25/11/2022,09:25:04,0.060,0.0,0.041,0.001
25/11/2022,09:26:04,0.061,0.0,0.042,0.001
25/11/2022,09:27:04,0.062,0.0,0.043,0.001
25/11/2022,09:28:04,0.062,0.0,0.044,0.001
25/11/2022,09:29:05,0.064,0.0,0.046,0.002
25/11/2022,09:30:04,0.065,0.0,0.047,0.001
25/11/2022,09:31:05,0.066,0.0,0.048,0.001
25/11/2022,09:32:05,0.067,0.0,0.049,0.001
25/11/2022,09:33:05,0.067,0.0,0.05,0.001
25/11/2022,09:34:04,0.068,0.0,0.051,0.001
25/11/2022,09:35:04,0.070,0.0,0.052,0.001
25/11/2022,09:36:04,0.071,0.0,0.053,0.001
25/11/2022,09:37:04,0.071,0.0,0.055,0.002
25/11/2022,09:38:05,0.072,0.0,0.056,0.001
25/11/2022,09:39:04,0.073,0.0,0.057,0.001
25/11/2022,09:40:05,0.075,0.0,0.058,0.001
25/11/2022,09:41:04,0.075,0.0,0.059,0.001
25/11/2022,09:42:04,0.076,0.0,0.061,0.002
25/11/2022,09:43:04,0.077,0.0,0.062,0.001
25/11/2022,09:44:05,0.078,0.0,0.063,0.001
25/11/2022,09:45:04,0.079,0.0,0.065,0.002
25/11/2022,09:46:04,0.079,0.0,0.066,0.001
25/11/2022,09:47:04,0.081,0.0,0.067,0.001
25/11/2022,09:48:04,0.083,0.0,0.069,0.002
25/11/2022,09:49:04,0.083,0.0,0.07,0.001
25/11/2022,09:50:04,0.084,0.0,0.071,0.001
25/11/2022,09:51:05,0.085,0.0,0.073,0.002
25/11/2022,09:52:04,0.088,0.0,0.074,0.001
25/11/2022,09:53:05,0.087,0.0,0.076,0.002
25/11/2022,09:54:04,0.088,0.0,0.077,0.001
25/11/2022,09:55:04,0.089,0.0,0.079,0.002
25/11/2022,09:56:04,0.090,0.0,0.08,0.001
25/11/2022,09:57:04,0.091,0.0,0.082,0.002
25/11/2022,09:58:04,0.092,0.0,0.083,0.001
25/11/2022,09:59:04,0.093,0.0,0.085,0.002
25/11/2022,10:00:04,0.094,0.0,0.086,0.001
25/11/2022,10:01:04,0.095,0.0,0.088,0.002
25/11/2022,10:02:04,0.096,0.0,0.089,0.001
25/11/2022,10:03:04,0.097,0.0,0.091,0.002
25/11/2022,10:04:04,0.099,0.0,0.093,0.002
25/11/2022,10:05:05,0.099,0.0,0.094,0.001
25/11/2022,10:06:04,0.101,0.0,0.096,0.002
25/11/2022,10:07:04,0.101,0.0,0.098,0.002
25/11/2022,10:08:04,0.102,0.0,0.099,0.001
25/11/2022,10:09:04,0.104,0.0,0.101,0.002
25/11/2022,10:10:04,0.104,0.0,0.103,0.002
25/11/2022,10:11:04,0.105,0.0,0.105,0.002
25/11/2022,10:12:04,0.106,0.0,0.106,0.001
25/11/2022,10:13:04,0.107,0.0,0.108,0.002
25/11/2022,10:14:04,0.108,0.0,0.11,0.002
25/11/2022,10:15:06,0.109,0.0,0.112,0.002
25/11/2022,10:16:04,0.110,0.0,0.114,0.002
25/11/2022,10:17:04,0.111,0.0,0.115,0.001
25/11/2022,10:18:05,0.112,0.0,0.117,0.002
25/11/2022,10:19:04,0.113,0.0,0.119,0.002
25/11/2022,10:20:04,0.114,0.0,0.121,0.002